Location: Arrodets-la-Barthe
(43.0306°N, 0.2829°E)
Time: 00:02:35
(UTC+00:00)

Cosmos 2344 - Pass Details

Date: 05 June 2022
Orbit: 1228 x 3015 km, 63.3° (Epoch: 04 July)

Event Time Altitude Azimuth Distance (km) Brightness Sun altitude
Rises 20:59:01 0° 260° (W) 4,207 6.8 -12.6°
Reaches altitude 10° 21:02:15 10° 272° (W) 3,193 6.3 -13.0°
Maximum altitude 21:08:29 28° 331° (NNW) 2,150 5.7 -13.7°
Drops below altitude 10° 21:15:14 10° 29° (NNE) 3,471 6.2 -14.5°
Sets 21:18:57 0° 41° (NE) 4,641 6.7 -14.9°
